TimeEST,TemperatureF,Dew PointF,Humidity,Sea Level PressureIn,VisibilityMPH,Wind Direction,Wind SpeedMPH,Gust SpeedMPH,PrecipitationIn,Events,Conditions,WindDirDegrees,DateUTC
12:34 AM,41.0,39.2,93,30.17,4.0,NW,3.5,-,N/A,,Clear,310,2012-11-21 05:34:00
12:55 AM,40.1,39.6,98,30.17,3.0,NW,3.5,-,N/A,,Clear,310,2012-11-21 05:55:00
1:12 AM,41.0,41.0,100,30.17,2.5,Calm,Calm,-,N/A,,Clear,0,2012-11-21 06:12:00
1:22 AM,39.2,39.2,100,30.17,2.0,Calm,Calm,-,N/A,,Clear,0,2012-11-21 06:22:00
1:25 AM,39.2,39.2,100,30.17,1.8,Calm,Calm,-,N/A,,Clear,0,2012-11-21 06:25:00
1:30 AM,39.2,39.2,100,30.17,0.8,Calm,Calm,-,N/A,,Clear,0,2012-11-21 06:30:00
1:32 AM,39.2,39.2,100,30.17,0.5,Calm,Calm,-,N/A,Fog,Fog,0,2012-11-21 06:32:00
1:35 AM,39.2,39.2,100,30.17,0.5,Calm,Calm,-,N/A,Fog,Fog,0,2012-11-21 06:35:00
1:36 AM,39.2,39.2,100,30.17,0.2,Calm,Calm,-,N/A,Fog,Fog,0,2012-11-21 06:36:00
1:40 AM,39.2,39.2,100,30.17,0.2,Calm,Calm,-,N/A,Fog,Fog,0,2012-11-21 06:40:00
1:41 AM,39.2,39.2,100,30.17,0.5,Calm,Calm,-,N/A,Fog,Fog,0,2012-11-21 06:41:00
1:43 AM,39.2,39.2,100,30.17,0.5,Calm,Calm,-,N/A,Fog,Fog,0,2012-11-21 06:43:00
1:45 AM,39.2,39.2,100,30.17,0.8,Calm,Calm,-,N/A,,Clear,0,2012-11-21 06:45:00
1:50 AM,37.4,37.4,100,30.17,0.5,Calm,Calm,-,N/A,Fog,Fog,0,2012-11-21 06:50:00
1:54 AM,37.4,37.4,100,30.17,0.2,Calm,Calm,-,N/A,Fog,Fog,0,2012-11-21 06:54:00
1:58 AM,35.6,35.6,100,30.17,0.2,Calm,Calm,-,N/A,Fog,Fog,0,2012-11-21 06:58:00
2:13 AM,35.6,35.6,100,30.17,0.2,Calm,Calm,-,N/A,Fog,Fog,0,2012-11-21 07:13:00
2:24 AM,37.4,37.4,100,30.18,0.2,Calm,Calm,-,N/A,Fog,Fog,0,2012-11-21 07:24:00
2:35 AM,35.6,35.6,100,30.18,0.2,Calm,Calm,-,N/A,Fog,Fog,0,2012-11-21 07:35:00
2:43 AM,35.6,35.6,100,30.18,0.2,Calm,Calm,-,N/A,Fog,Fog,0,2012-11-21 07:43:00
2:46 AM,35.6,35.6,100,30.19,0.2,Calm,Calm,-,N/A,Fog,Fog,0,2012-11-21 07:46:00
2:53 AM,35.6,35.6,100,30.19,0.2,Calm,Calm,-,N/A,Fog,Fog,0,2012-11-21 07:53:00
2:54 AM,35.6,35.6,100,30.19,0.5,Calm,Calm,-,N/A,Fog,Fog,0,2012-11-21 07:54:00
2:57 AM,35.6,35.6,100,30.19,0.8,Calm,Calm,-,N/A,,Mist,0,2012-11-21 07:57:00
2:59 AM,35.6,35.6,100,30.19,1.0,Calm,Calm,-,N/A,,Mist,0,2012-11-21 07:59:00
3:00 AM,35.6,35.6,100,30.19,1.2,Calm,Calm,-,N/A,,Scattered Clouds,0,2012-11-21 08:00:00
3:03 AM,35.6,35.6,100,30.19,1.2,Calm,Calm,-,N/A,,Scattered Clouds,0,2012-11-21 08:03:00
3:04 AM,35.6,35.6,100,30.19,1.0,Calm,Calm,-,N/A,,Mist,0,2012-11-21 08:04:00
3:07 AM,35.6,35.6,100,30.19,0.5,Calm,Calm,-,N/A,Fog,Fog,0,2012-11-21 08:07:00
3:10 AM,35.6,35.6,100,30.19,0.5,Calm,Calm,-,N/A,Fog,Fog,0,2012-11-21 08:10:00
3:11 AM,35.6,35.6,100,30.19,0.2,Calm,Calm,-,N/A,Fog,Fog,0,2012-11-21 08:11:00
3:16 AM,35.6,35.6,100,30.19,0.2,Calm,Calm,-,N/A,Fog,Fog,0,2012-11-21 08:16:00
3:55 AM,37.2,37.2,100,30.19,0.2,Calm,Calm,-,N/A,Fog,Fog,0,2012-11-21 08:55:00
4:55 AM,36.7,36.7,100,30.20,0.2,Calm,Calm,-,N/A,Fog,Fog,0,2012-11-21 09:55:00
5:08 AM,37.4,37.4,100,30.21,0.2,Calm,Calm,-,N/A,Fog,Fog,0,2012-11-21 10:08:00
5:18 AM,35.6,35.6,100,30.21,0.2,Calm,Calm,-,N/A,Fog,Fog,0,2012-11-21 10:18:00
5:55 AM,36.3,36.3,100,30.22,0.2,Calm,Calm,-,0.00,Fog,Fog,0,2012-11-21 10:55:00
6:55 AM,33.8,33.8,100,30.22,0.1,Calm,Calm,-,N/A,Fog,Fog,0,2012-11-21 11:55:00
7:28 AM,33.8,33.8,100,30.20,0.0,South,2.3,-,N/A,Fog,Fog,170,2012-11-21 12:28:00
7:29 AM,33.8,33.8,100,30.20,0.1,South,2.3,-,N/A,Fog,Fog,170,2012-11-21 12:29:00
7:55 AM,33.8,33.8,100,30.24,0.0,Calm,Calm,-,N/A,Fog,Fog,0,2012-11-21 12:55:00
8:55 AM,34.2,34.2,100,30.25,0.0,Calm,Calm,-,N/A,Fog,Fog,0,2012-11-21 13:55:00
9:55 AM,36.7,36.7,100,30.27,0.0,Calm,Calm,-,N/A,Fog,Fog,0,2012-11-21 14:55:00
10:12 AM,37.4,37.4,100,30.25,0.1,WSW,1.2,-,N/A,Fog,Fog,240,2012-11-21 15:12:00
10:33 AM,39.2,39.2,100,30.26,0.1,West,2.3,-,N/A,Fog,Fog,270,2012-11-21 15:33:00
10:55 AM,41.0,41.0,100,30.28,0.1,Calm,Calm,-,N/A,Fog,Fog,0,2012-11-21 15:55:00
11:10 AM,41.0,41.0,100,30.28,0.1,Calm,Calm,-,N/A,,Mist,0,2012-11-21 16:10:00
11:13 AM,41.0,41.0,100,30.28,0.3,Calm,Calm,-,N/A,Fog,Fog,0,2012-11-21 16:13:00
11:31 AM,42.8,42.8,100,30.27,1.5,Calm,Calm,-,N/A,,Overcast,0,2012-11-21 16:31:00
11:55 AM,45.3,45.3,100,30.27,2.5,Calm,Calm,-,N/A,,Partly Cloudy,0,2012-11-21 16:55:00
12:31 PM,48.2,48.2,100,30.24,4.0,NW,2.3,-,N/A,,Clear,310,2012-11-21 17:31:00
1:55 PM,52.5,52.0,98,30.24,7.0,NW,5.8,-,N/A,,Clear,310,2012-11-21 18:55:00
2:55 PM,54.9,46.6,74,30.22,9.0,West,3.5,-,N/A,,Clear,280,2012-11-21 19:55:00
3:55 PM,55.6,46.2,71,30.21,10.0,SW,3.5,-,N/A,,Clear,230,2012-11-21 20:55:00
4:55 PM,52.9,46.0,78,30.21,10.0,West,3.5,-,N/A,,Clear,260,2012-11-21 21:55:00
5:55 PM,47.3,45.9,95,30.20,7.0,Calm,Calm,-,N/A,,Clear,0,2012-11-21 22:55:00
6:55 PM,45.9,45.3,98,30.21,5.0,Calm,Calm,-,N/A,,Clear,0,2012-11-21 23:55:00
7:29 PM,44.6,44.6,100,30.20,4.0,South,3.5,-,N/A,,Clear,170,2012-11-22 00:29:00
7:55 PM,42.8,42.8,100,30.20,3.0,SSE,4.6,-,N/A,,Clear,150,2012-11-22 00:55:00
8:55 PM,40.6,40.6,100,30.20,3.0,SSE,4.6,-,N/A,,Clear,150,2012-11-22 01:55:00
9:55 PM,39.2,39.2,100,30.20,2.0,South,3.5,-,N/A,,Clear,170,2012-11-22 02:55:00
10:45 PM,39.2,39.2,100,30.20,1.8,Calm,Calm,-,N/A,,Clear,0,2012-11-22 03:45:00
10:50 PM,39.2,39.2,100,30.20,1.0,South,4.6,-,N/A,,Clear,170,2012-11-22 03:50:00
10:53 PM,39.2,39.2,100,30.19,1.2,South,4.6,-,N/A,,Clear,180,2012-11-22 03:53:00
10:55 PM,38.8,38.8,100,30.19,1.2,South,4.6,-,N/A,,Clear,180,2012-11-22 03:55:00
10:57 PM,39.2,39.2,100,30.19,1.5,South,4.6,-,N/A,,Clear,180,2012-11-22 03:57:00
11:07 PM,39.2,39.2,100,30.19,2.0,South,5.8,-,N/A,,Clear,180,2012-11-22 04:07:00
11:15 PM,39.2,39.2,100,30.19,2.5,South,5.8,-,N/A,,Clear,180,2012-11-22 04:15:00
11:33 PM,39.2,39.2,100,30.19,2.0,South,4.6,-,N/A,,Clear,180,2012-11-22 04:33:00
11:43 PM,39.2,39.2,100,30.19,1.8,South,3.5,-,N/A,,Clear,180,2012-11-22 04:43:00
11:55 PM,39.9,39.9,100,30.19,1.8,South,3.5,-,N/A,,Clear,170,2012-11-22 04:55:00